Погода в Ниигате

Япония     37˚49′52″N   139˚01′09″E
темп.,
°C
ветер,
м/с
пор.,
м/с
влажн.,
%
обл.,
%
осадки,
мм/ч
давл.,
гПа
погр.,
м
18 января, пн
пн1800:00в129597 1.3 1019154
03:00−2˚ююв139297 3.3 1018165
06:00−2˚ююв248993 1.2 1018209
09:00−1˚ююв487671 1.2 1017407
12:00+1˚юз4109577 2.9 1015653
15:00+3˚юз6137789 5.1 1011931
18:00+3˚юз71479100 3.2 1011903
21:00+1˚ююз4894100 7.3 1008445
19 января, вт
вт1900:00ююз41098100 10.2 1006615
03:00+1˚сз101588100 15.1 1008928
06:00−1˚зсз111872100 0.3 10151607
09:00−3˚зсз101673100 0.8 10201950
12:00−3˚зсз101574100 0.3 10222069
15:00−3˚зсз91379100 0.8 10241747
18:00−3˚зсз61078100 0.4 10281087
21:00−3˚зсз5976100 0.7 1030708
20 января, ср
ср2000:00−3˚зсз487694 0.2 1031485
03:00−2˚зсз497996 0.4 1032473
06:00−2˚зюз2682100 0.4 1033213
09:00−2˚ююз3592100 1.1 1034367
12:00−1˚ююз2495100 0.7 1032356
15:00юв119699 0.9 1031162
18:00−2˚в12891 0.0 103222
21:00−4˚вюв12871 0.0 103141
21 января, чт
чт2100:00−4˚юв22830 0.0 103046
03:00−4˚ююв127950 0.0 102940
06:00−3˚ююв227513 0.0 102938
09:00юв11839 0.0 102967
12:00+3˚ю12900 0.0 102691
15:00+4˚ю129521 0.0 102443
18:00+1˚юв2294100 0.0 102324
21:00+1˚юв128289 0.0 102322
22 января, пт
пт2200:00+1˚ююв2274100 0.0 102236
03:00+2˚ююв1274100 0.0 102028
06:00+2˚ю1288100 0.3 101933
09:00+3˚ююз2293100 0.3 101970
12:00+4˚ю2395100 0.2 1018100
15:00+4˚ююв0197100 0.9 101822
18:00+4˚в1198100 0.5 101922
21:00+4˚юв1197100 0.7 102022